Weather in Novaya Zhizn

Russia / Samara Oblast     54°09′26″N   50°24′24″E
temp.,
°C
wind,
m/s
gust,
m/s
humid.,
%
clouds,
%
prec.,
mm/h
press.,
hPa
HPBL,
m
28 february, sun
sun2801:00−12nw599499 0.1 1000334
04:00−13nw51194100 0.1 1002355
07:00−14nw61194100 0.1 1004367
10:00−14nnw6993100 0.1 1005419
13:00−12nnw5892100 0.1 1007507
16:00−13nw5892100 0.3 1009503
19:00−15nnw489498 0.1 1011327
22:00−16nnw489695 0.2 1014230
1 march, mon
mon101:00−19nnw349779 0.0 101595
04:00−21nnw349881 0.1 101876
07:00−22nnw349863 0.0 101954
10:00−20nnw369659 0.0 1021216
13:00−16nw349362 0.0 1022323
16:00−15nw259379 0.0 1022314
19:00−19nw229835 0.0 102220
22:00−20sw239918 0.0 102220
2 march, tue
tue201:00−20ssw349828 0.0 101958
04:00−16ssw599661 0.0 1016237
07:00−14ssw61295100 0.0 1012276
10:00−11ssw71194100 0.3 1009419
13:00−8ssw71294100 0.8 1006522
16:00−5ssw71294100 1.4 1003603
19:00−3ssw61196100 1.1 1001515
22:00−2sw5997100 2.2 1000368
3 march, wed
wed301:00−1w369797 0.3 999274
04:00−4w499699 0.5 999316
07:00−6wnw5109598 0.1 1000327
10:00−6nw4109499 0.2 1001410
13:00−3nw599098 0.0 1002680
16:00−3nw589099 0.1 1004755
19:00−4nw499599 0.1 1005324
22:00−5nw5119492 0.1 1008482
4 march, thu
thu401:00−10nw4109261 0.1 1009199
04:00−11wnw489660 0.1 1011191
07:00−12wnw489796 0.0 1012160
10:00−11wnw489696 0.1 1014297
13:00−7wnw4792100 0.0 1014540
16:00−7wsw4791100 0.1 1014490
19:00−10sw479340 0.0 1013108
22:00−7sw6139352 0.0 1012370